Date String (YYYY-MM-DD hh:mm:ss) UTC,Instrument flags,absolute air pressure of the measurement (hPa),sample flow rate (lpm),inlet stack bypass flow (lpm),air temperature of the measurement (°C),ambient temperature measured by the external sensor (°C),aerosol sample conditioner tube jacket temperature (°C),OPC LED temperature (°C),internal box temperature (°C),relative humidity of the measurement (%),span deviation,mass concentration of particles derived from Lorenz-Mie calculation of OPC scattering (μg/m³),mass concentration of particles derived from Lorenz-Mie calculation of OPC scattering (μg/m³),mass concentration of particles derived from Lorenz-Mie calculation of OPC scattering (μg/m³)
DateTimeUTC,F1_M11,P_M11,Q1_M11,Q2_M11,T1_M11,T2_M11,T3_M11,T4_M11,T5_M11,U1_M11,ZSPAN_M11,X0_M11,X2_M11,X1_M11
2023-06-02 04:00:00,SystemResetWarning,0827.2,5.01,000.00,029.9,028.5,000.0,038.2,031.6,24.9,0000.0,0005.51,0002.34,0001.63
2023-06-02 04:01:00,SystemResetWarning,0827.2,5.00,000.00,030.0,028.5,000.0,038.2,031.6,24.8,0000.0,0005.59,0002.42,0001.68
2023-06-02 04:02:00,SystemResetWarning,0827.2,4.98,000.00,030.0,028.5,000.0,038.3,031.6,24.8,0000.0,0005.51,0002.45,0001.71
2023-06-02 04:03:00,SystemResetWarning,0827.2,5.00,000.00,030.0,028.5,000.0,038.3,031.6,24.9,0000.0,0005.52,0002.43,0001.72
2023-06-02 04:04:00,SystemResetWarning,0827.2,5.01,000.00,030.0,028.5,000.0,038.3,031.6,24.9,0000.0,0005.78,0002.48,0001.74
2023-06-02 04:05:00,SystemResetWarning,0827.2,5.00,000.00,030.0,028.5,000.0,038.3,031.6,24.9,0000.0,0005.21,0002.54,0001.79
2023-06-02 04:06:00,SystemResetWarning,0827.2,5.00,000.00,030.0,028.5,000.0,038.3,031.6,24.9,0000.0,0004.72,0002.66,0001.82
2023-06-02 04:07:00,SystemResetWarning,0827.2,4.99,000.00,030.0,028.5,000.0,038.3,031.6,24.9,0000.0,0004.98,0002.73,0001.84
2023-06-02 04:08:00,SystemResetWarning,0827.3,4.99,000.00,030.0,028.5,000.0,038.3,031.7,24.9,0000.0,0004.94,0002.72,0001.85
2023-06-02 04:09:00,SystemResetWarning,0827.3,5.00,000.00,030.0,028.6,000.0,038.3,031.7,24.9,0000.0,0004.99,0002.73,0001.86
2023-06-02 04:10:00,SystemResetWarning,0827.3,5.01,000.00,030.0,028.6,000.0,038.3,031.7,25.0,0000.0,0005.09,0002.75,0001.87
2023-06-02 04:11:00,SystemResetWarning,0827.3,5.01,000.00,030.0,028.6,000.0,038.4,031.7,25.1,0000.0,0005.08,0002.74,0001.88
2023-06-02 04:12:00,SystemResetWarning,0827.3,4.99,000.00,030.0,028.6,000.0,038.4,031.7,25.1,0000.0,0005.02,0002.69,0001.88
2023-06-02 04:13:00,SystemResetWarning,0827.3,5.00,000.00,030.0,028.6,000.0,038.4,031.7,25.2,0000.0,0005.05,0002.70,0001.89
2023-06-02 04:14:00,SystemResetWarning,0827.3,4.99,000.00,030.0,027.4,000.0,038.3,031.5,25.2,0000.0,0005.06,0002.70,0001.91
2023-06-02 04:15:00,SystemResetWarning,0827.3,5.00,000.00,030.0,025.7,000.0,038.2,031.2,25.3,0000.0,0004.88,0002.70,0001.92
2023-06-02 04:16:00,SystemResetWarning,0827.3,5.01,000.00,029.9,025.3,000.0,038.2,031.1,25.5,0000.0,0004.58,0002.63,0001.91
2023-06-02 04:17:00,SystemResetWarning,0827.3,5.01,000.00,029.7,025.5,000.0,038.1,031.0,25.7,0000.0,0004.74,0002.59,0001.90
2023-06-02 04:18:00,SystemResetWarning,0827.4,5.00,000.00,029.7,025.9,000.0,038.1,031.0,25.9,0000.0,0004.57,0002.59,0001.91
2023-06-02 04:19:00,SystemResetWarning,0827.3,4.99,000.00,029.6,026.2,000.0,038.1,031.0,26.0,0000.0,0004.47,0002.57,0001.91
2023-06-02 04:20:00,SystemResetWarning,0827.3,5.00,000.00,029.6,026.6,000.0,038.1,031.0,26.1,0000.0,0004.86,0002.58,0001.92
2023-06-02 04:21:00,SystemResetWarning,0827.4,5.00,000.00,029.6,026.8,000.0,038.1,031.0,26.1,0000.0,0005.14,0002.59,0001.94
2023-06-02 04:22:00,SystemResetWarning,0827.4,5.00,000.00,029.6,027.1,000.0,038.0,031.0,26.2,0000.0,0005.22,0002.62,0001.96
2023-06-02 04:23:00,SystemResetWarning,0827.4,5.00,000.00,029.6,027.3,000.0,038.0,031.1,26.2,0000.0,0005.25,0002.63,0001.96
2023-06-02 04:24:00,SystemResetWarning,0827.4,5.00,000.00,029.6,027.4,000.0,038.0,031.1,26.1,0000.0,0005.37,0002.65,0001.97
2023-06-02 04:25:00,SystemResetWarning,0827.4,5.01,000.00,029.6,027.6,000.0,038.0,031.1,26.2,0000.0,0005.52,0002.69,0001.97
2023-06-02 04:26:00,SystemResetWarning,0827.4,5.00,000.00,029.6,027.7,000.0,038.0,031.1,26.2,0000.0,0005.58,0002.73,0001.98
2023-06-02 04:27:00,SystemResetWarning,0827.4,4.99,000.00,029.6,027.7,000.0,038.0,031.2,26.2,0000.0,0005.73,0002.78,0002.00
2023-06-02 04:28:00,SystemResetWarning,0827.4,4.99,000.00,029.6,027.8,000.0,038.0,031.2,26.2,0000.0,0005.65,0002.81,0002.04
2023-06-02 04:29:00,SystemResetWarning,0827.4,5.00,000.00,029.6,027.9,000.0,038.0,031.2,26.1,0000.0,0005.31,0002.76,0002.05
2023-06-02 04:30:00,SystemResetWarning,0827.4,5.00,000.00,029.6,027.9,000.0,038.0,031.2,26.2,0000.0,0005.52,0002.82,0002.07
2023-06-02 04:31:00,SystemResetWarning,0827.4,5.00,000.00,029.6,028.0,000.0,038.0,031.2,26.1,0000.0,0005.93,0002.89,0002.09
2023-06-02 04:32:00,SystemResetWarning,0827.4,5.00,000.00,029.6,028.0,000.0,038.0,031.3,26.1,0000.0,0005.38,0002.96,0002.09
2023-06-02 04:33:00,SystemResetWarning,0827.4,5.00,000.00,029.6,028.1,000.0,038.0,031.3,26.1,0000.0,0005.65,0003.02,0002.09
2023-06-02 04:34:00,SystemResetWarning,0827.8,4.99,000.00,029.7,028.1,000.0,038.0,031.3,26.1,0000.0,0005.73,0003.00,0002.08
2023-06-02 04:35:00,SystemResetWarning,0827.5,5.01,000.00,029.7,028.1,000.0,038.0,031.3,26.1,0000.0,0006.40,0003.04,0002.08
2023-06-02 04:36:00,SystemResetWarning,0827.5,5.01,000.00,029.7,028.2,000.0,038.0,031.3,26.0,0000.0,0006.73,0003.06,0002.09
2023-06-02 04:37:00,SystemResetWarning,0827.6,4.98,000.00,029.7,028.2,000.0,038.0,031.3,25.9,0000.0,0007.02,0003.03,0002.11
2023-06-02 04:38:00,SystemResetWarning,0827.7,4.99,000.00,029.7,028.2,000.0,038.0,031.4,26.0,0000.0,0006.89,0003.00,0002.12
2023-06-02 04:39:00,SystemResetWarning,0827.7,5.01,000.00,029.7,028.2,000.0,038.0,031.4,25.9,0000.0,0006.86,0002.99,0002.13
2023-06-02 04:40:00,SystemResetWarning,0827.7,5.00,000.00,029.8,028.3,000.0,038.1,031.4,25.9,0000.0,0007.09,0003.07,0002.15
2023-06-02 04:41:00,SystemResetWarning,0827.8,4.99,000.00,029.8,028.3,000.0,038.1,031.4,25.9,0000.0,0007.14,0003.08,0002.13
2023-06-02 04:42:00,SystemResetWarning,0827.8,4.99,000.00,029.8,028.3,000.0,038.1,031.4,26.1,0000.0,0006.79,0003.08,0002.13
2023-06-02 04:43:00,SystemResetWarning,0827.8,5.01,000.00,029.8,028.3,000.0,038.1,031.4,26.1,0000.0,0006.92,0003.08,0002.13
2023-06-02 04:44:00,SystemResetWarning,0827.8,5.00,000.00,029.8,028.3,000.0,038.1,031.4,26.2,0000.0,0006.59,0003.00,0002.12
2023-06-02 04:45:00,SystemResetWarning,0827.8,5.00,000.00,029.8,028.3,000.0,038.1,031.4,26.2,0000.0,0006.59,0003.00,0002.14
2023-06-02 04:46:00,SystemResetWarning,0827.8,4.99,000.00,029.8,028.2,000.0,038.1,031.4,26.1,0000.0,0005.84,0002.96,0002.13
2023-06-02 04:47:00,SystemResetWarning,0827.7,4.99,000.00,029.7,028.2,000.0,038.1,031.4,26.2,0000.0,0005.57,0002.94,0002.12
2023-06-02 04:48:00,SystemResetWarning,0827.8,4.99,000.00,029.7,028.2,000.0,038.1,031.3,26.5,0000.0,0004.94,0002.91,0002.11
2023-06-02 04:49:00,SystemResetWarning,0827.8,5.00,000.00,029.7,028.2,000.0,038.1,031.3,26.5,0000.0,0004.98,0002.91,0002.08
2023-06-02 04:50:00,SystemResetWarning,0827.8,5.00,000.00,029.7,028.2,000.0,038.1,031.3,26.3,0000.0,0004.99,0002.91,0002.06
2023-06-02 04:51:00,SystemResetWarning,0827.8,5.00,000.00,029.7,028.2,000.0,038.1,031.3,26.5,0000.0,0005.12,0002.85,0002.04
2023-06-02 04:52:00,SystemResetWarning,0827.8,5.00,000.00,029.7,028.1,000.0,038.1,031.3,26.3,0000.0,0005.46,0002.84,0002.04
2023-06-02 04:53:00,SystemResetWarning,0827.8,5.00,000.00,029.7,028.1,000.0,038.1,031.3,26.4,0000.0,0005.62,0002.82,0002.04
2023-06-02 04:54:00,SystemResetWarning,0827.8,5.00,000.00,029.7,028.1,000.0,038.1,031.3,26.4,0000.0,0005.82,0002.77,0002.04
2023-06-02 04:55:00,SystemResetWarning,0827.8,5.00,000.00,029.7,028.1,000.0,038.1,031.3,26.3,0000.0,0006.07,0002.84,0002.07
2023-06-02 04:56:00,SystemResetWarning,0827.8,5.00,000.00,029.7,028.1,000.0,038.1,031.3,26.3,0000.0,0006.21,0002.86,0002.07
2023-06-02 04:57:00,SystemResetWarning,0827.8,5.00,000.00,029.7,028.1,000.0,038.1,031.3,26.4,0000.0,0006.47,0002.97,0002.08
2023-06-02 04:58:00,SystemResetWarning,0827.9,5.00,000.00,029.7,028.1,000.0,038.1,031.3,26.6,0000.0,0006.54,0003.04,0002.11
2023-06-02 04:59:00,SystemResetWarning,0827.8,5.00,000.00,029.7,028.1,000.0,038.1,031.3,26.9,0000.0,0006.61,0003.07,0002.10
